| time (UTC) | temp F | wind direction | speed MPH | gust MPH | rain 1hr in | rain 24hr in | rain mn in | humidity % | barometer mb |
| 20260507170718 | 60 | 291 | 3.0 | 7.0 | 0.00 | 0.06 | 0.06 | 61 | 1015.1 |
| 20260507165715 | 61 | 287 | 2.0 | 6.0 | 0.00 | 0.06 | 0.06 | 61 | 1015.1 |
| 20260507164715 | 61 | 289 | 3.0 | 8.0 | 0.00 | 0.06 | 0.06 | 63 | 1015.1 |
| 20260507163716 | 61 | 285 | 3.0 | 8.0 | 0.00 | 0.06 | 0.06 | 61 | 1015.1 |
| 20260507162716 | 61 | 288 | 2.0 | 6.0 | 0.00 | 0.06 | 0.06 | 61 | 1015.1 |
| 20260507161717 | 61 | 283 | 2.0 | 7.0 | 0.00 | 0.06 | 0.06 | 61 | 1015.1 |
| 20260507160717 | 61 | 300 | 4.0 | 8.0 | 0.00 | 0.06 | 0.06 | 61 | 1015.1 |
| 20260507155717 | 61 | 286 | 2.0 | 6.0 | 0.00 | 0.06 | 0.06 | 60 | 1015.1 |
| 20260507154715 | 62 | 294 | 2.0 | 7.0 | 0.00 | 0.06 | 0.06 | 63 | 1015.1 |
| 20260507153715 | 62 | 282 | 2.0 | 8.0 | 0.00 | 0.06 | 0.06 | 61 | 1015.1 |
| 20260507152716 | 61 | 297 | 2.0 | 5.0 | 0.00 | 0.06 | 0.06 | 61 | 1015.1 |
| 20260507151716 | 61 | 298 | 3.0 | 6.0 | 0.00 | 0.06 | 0.06 | 62 | 1015.2 |
| 20260507150717 | 61 | 314 | 3.0 | 8.0 | 0.00 | 0.06 | 0.06 | 62 | 1015.2 |
| 20260507145717 | 61 | 314 | 3.0 | 10.0 | 0.00 | 0.06 | 0.06 | 62 | 1015.2 |
| 20260507144717 | 62 | 32 | 2.0 | 7.0 | 0.00 | 0.06 | 0.06 | 63 | 1015.1 |
| 20260507143715 | 61 | 292 | 3.0 | 6.0 | 0.00 | 0.06 | 0.06 | 64 | 1015.1 |
| 20260507142715 | 60 | 297 | 1.0 | 5.0 | 0.00 | 0.06 | 0.06 | 67 | 1015.2 |
| 20260507141716 | 58 | 240 | 1.0 | 5.0 | 0.00 | 0.06 | 0.06 | 69 | 1015.2 |
| 20260507140716 | 57 | 249 | 2.0 | 6.0 | 0.00 | 0.06 | 0.06 | 69 | 1015.2 |
| 20260507135717 | 57 | 291 | 2.0 | 7.0 | 0.00 | 0.06 | 0.06 | 69 | 1015.4 |
| 20260507134717 | 57 | 316 | 1.0 | 3.0 | 0.00 | 0.06 | 0.06 | 69 | 1015.4 |
| 20260507133718 | 58 | 311 | 2.0 | 5.0 | 0.00 | 0.07 | 0.06 | 69 | 1015.4 |
| 20260507132715 | 58 | 274 | 2.0 | 5.0 | 0.00 | 0.08 | 0.06 | 70 | 1015.5 |
| 20260507131715 | 58 | 61 | 1.0 | 4.0 | 0.00 | 0.09 | 0.06 | 71 | 1015.6 |
| 20260507130716 | 59 | 288 | 3.0 | 10.0 | 0.00 | 0.09 | 0.06 | 70 | 1015.6 |
| 20260507125716 | 58 | 288 | 3.0 | 10.0 | 0.00 | 0.10 | 0.06 | 72 | 1015.5 |
| 20260507124717 | 58 | 296 | 4.0 | 9.0 | 0.00 | 0.11 | 0.06 | 73 | 1015.6 |
| 20260507123717 | 58 | 260 | 2.0 | 5.0 | 0.00 | 0.12 | 0.06 | 75 | 1015.5 |
| 20260507122718 | 58 | 295 | 3.0 | 9.0 | 0.00 | 0.13 | 0.06 | 73 | 1015.5 |
| 20260507121715 | 57 | 335 | 2.0 | 6.0 | 0.00 | 0.13 | 0.06 | 74 | 1015.6 |
| 20260507120715 | 56 | 296 | 4.0 | 9.0 | 0.00 | 0.15 | 0.06 | 76 | 1015.6 |
| 20260507115716 | 56 | 300 | 3.0 | 7.0 | 0.00 | 0.20 | 0.06 | 76 | 1015.5 |
| 20260507114716 | 57 | 304 | 3.0 | 10.0 | 0.00 | 0.21 | 0.06 | 75 | 1015.5 |
| 20260507113717 | 56 | 287 | 2.0 | 8.0 | 0.00 | 0.22 | 0.06 | 78 | 1015.7 |
| 20260507112717 | 55 | 289 | 2.0 | 4.0 | 0.00 | 0.23 | 0.06 | 80 | 1015.6 |
| 20260507111718 | 54 | 338 | 0.0 | 2.0 | 0.00 | 0.23 | 0.06 | 82 | 1015.7 |
| 20260507110715 | 54 | 294 | 2.0 | 3.0 | 0.00 | 0.24 | 0.06 | 81 | 1015.7 |
| 20260507105716 | 55 | 333 | 1.0 | 3.0 | 0.00 | 0.24 | 0.06 | 83 | 1015.7 |
| 20260507104716 | 53 | 198 | 0.0 | 2.0 | 0.00 | 0.24 | 0.06 | 86 | 1015.8 |
| 20260507103716 | 53 | 203 | 1.0 | 5.0 | 0.00 | 0.24 | 0.06 | 84 | 1015.8 |
| 20260507102717 | 53 | 290 | 1.0 | 3.0 | 0.00 | 0.24 | 0.06 | 86 | 1015.8 |
| 20260507101717 | 53 | 182 | 1.0 | 2.0 | 0.00 | 0.24 | 0.06 | 86 | 1015.8 |
| 20260507100717 | 53 | 232 | 1.0 | 3.0 | 0.00 | 0.24 | 0.06 | 86 | 1015.8 |
| 20260507095715 | 54 | 238 | 1.0 | 4.0 | 0.00 | 0.24 | 0.06 | 84 | 1015.8 |
| 20260507094716 | 53 | 205 | 1.0 | 6.0 | 0.00 | 0.24 | 0.06 | 85 | 1015.8 |
| 20260507093716 | 53 | 211 | 1.0 | 5.0 | 0.00 | 0.24 | 0.06 | 86 | 1015.8 |
| 20260507092717 | 52 | 227 | 1.0 | 4.0 | 0.00 | 0.24 | 0.06 | 89 | 1015.7 |
| 20260507091717 | 51 | 213 | 3.0 | 7.0 | 0.00 | 0.24 | 0.06 | 91 | 1015.7 |
| 20260507090717 | 50 | 218 | 1.0 | 4.0 | 0.00 | 0.24 | 0.06 | 91 | 1015.7 |
| 20260507085718 | 50 | 269 | 1.0 | 3.0 | 0.00 | 0.24 | 0.06 | 92 | 1015.6 |
| 20260507084716 | 49 | 218 | 0.0 | 3.0 | 0.00 | 0.24 | 0.06 | 94 | 1015.6 |
| 20260507083715 | 49 | 215 | 2.0 | 7.0 | 0.01 | 0.24 | 0.06 | 95 | 1015.5 |
| 20260507082716 | 48 | 220 | 2.0 | 4.0 | 0.01 | 0.24 | 0.06 | 95 | 1015.5 |
| 20260507081717 | 48 | 217 | 1.0 | 4.0 | 0.01 | 0.24 | 0.06 | 96 | 1015.6 |
| 20260507080717 | 47 | 217 | 2.0 | 5.0 | 0.02 | 0.24 | 0.06 | 96 | 1015.5 |
| 20260507075717 | 47 | 222 | 2.0 | 4.0 | 0.02 | 0.24 | 0.06 | 95 | 1015.5 |
| 20260507074717 | 47 | 220 | 1.0 | 4.0 | 0.02 | 0.24 | 0.06 | 96 | 1015.4 |
| 20260507073716 | 47 | 220 | 1.0 | 2.0 | 0.01 | 0.24 | 0.06 | 95 | 1015.3 |
| 20260507072716 | 47 | 220 | 1.0 | 3.0 | 0.02 | 0.24 | 0.06 | 96 | 1015.3 |
| 20260507071716 | 46 | 0.0 | 0.0 | 0.02 | 0.24 | 0.06 | 96 | 1015.2 | |
| 20260507070717 | 46 | 0.0 | 0.0 | 0.01 | 0.23 | 0.05 | 96 | 1015.2 | |
| 20260507065717 | 46 | 0.0 | 0.0 | 0.01 | 0.23 | 0.05 | 95 | 1015.1 | |
| 20260507064717 | 46 | 229 | 0.0 | 1.0 | 0.01 | 0.23 | 0.05 | 95 | 1015.0 |
| 20260507063718 | 46 | 222 | 1.0 | 4.0 | 0.01 | 0.23 | 0.05 | 95 | 1014.9 |
| 20260507062715 | 46 | 221 | 1.0 | 4.0 | 0.00 | 0.22 | 0.04 | 95 | 1014.9 |
| 20260507061716 | 46 | 201 | 0.0 | 1.0 | 0.00 | 0.22 | 0.04 | 95 | 1014.9 |
| 20260507060716 | 46 | 0.0 | 0.0 | 0.00 | 0.22 | 0.04 | 95 | 1014.8 | |
| 20260507055717 | 46 | 206 | 1.0 | 4.0 | 0.00 | 0.22 | 0.04 | 95 | 1014.7 |
| 20260507054717 | 46 | 215 | 1.0 | 3.0 | 0.00 | 0.22 | 0.04 | 95 | 1014.6 |
| 20260507053717 | 46 | 212 | 1.0 | 4.0 | 0.00 | 0.22 | 0.04 | 95 | 1014.4 |
| 20260507052717 | 46 | 227 | 2.0 | 4.0 | 0.00 | 0.22 | 0.04 | 95 | 1014.3 |
| 20260507051715 | 45 | 209 | 1.0 | 5.0 | 0.00 | 0.22 | 0.04 | 96 | 1014.3 |
| 20260507050716 | 45 | 221 | 0.0 | 4.0 | 0.00 | 0.22 | 0.04 | 96 | 1014.1 |
| 20260507045716 | 45 | 206 | 0.0 | 1.0 | 0.00 | 0.22 | 0.04 | 96 | 1014.1 |
| 20260507044717 | 45 | 235 | 0.0 | 2.0 | 0.00 | 0.22 | 0.04 | 96 | 1013.9 |
| 20260507043717 | 45 | 223 | 0.0 | 2.0 | 0.01 | 0.22 | 0.04 | 96 | 1013.8 |
| 20260507042717 | 45 | 227 | 0.0 | 2.0 | 0.01 | 0.22 | 0.04 | 96 | 1013.8 |
| 20260507041717 | 45 | 214 | 2.0 | 5.0 | 0.02 | 0.22 | 0.04 | 96 | 1013.7 |
| 20260507040715 | 45 | 220 | 2.0 | 6.0 | 0.02 | 0.22 | 0.04 | 96 | 1013.7 |
| 20260507035716 | 45 | 225 | 1.0 | 3.0 | 0.02 | 0.22 | 0.04 | 96 | 1013.6 |
| 20260507034716 | 45 | 0.0 | 0.0 | 0.03 | 0.22 | 0.04 | 96 | 1013.6 | |
| 20260507033716 | 45 | 229 | 0.0 | 2.0 | 0.03 | 0.21 | 0.03 | 96 | 1013.6 |
| 20260507032715 | 45 | 209 | 1.0 | 28.0 | 0.03 | 0.21 | 0.03 | 96 | 1013.5 |
| 20260507031717 | 45 | 207 | 2.0 | 5.0 | 0.02 | 0.20 | 0.02 | 95 | 1013.4 |
| 20260507030718 | 45 | 214 | 2.0 | 5.0 | 0.02 | 0.20 | 0.02 | 95 | 1013.3 |
| 20260507025715 | 45 | 217 | 2.0 | 4.0 | 0.02 | 0.20 | 0.02 | 95 | 1013.3 |
| 20260507024716 | 44 | 221 | 2.0 | 7.0 | 0.01 | 0.19 | 0.01 | 95 | 1013.3 |
| 20260507023717 | 45 | 231 | 0.0 | 1.0 | 0.00 | 0.18 | 0.00 | 95 | 1013.4 |
| 20260507022717 | 45 | 225 | 0.0 | 1.0 | 0.00 | 0.18 | 0.00 | 95 | 1013.3 |
| 20260507021717 | 45 | 217 | 1.0 | 3.0 | 0.00 | 0.18 | 0.00 | 95 | 1013.2 |
| 20260507020717 | 45 | 214 | 2.0 | 4.0 | 0.00 | 0.18 | 0.00 | 94 | 1013.2 |
| 20260507015717 | 45 | 201 | 1.0 | 4.0 | 0.00 | 0.18 | 0.00 | 94 | 1013.2 |
| 20260507014715 | 45 | 215 | 1.0 | 6.0 | 0.00 | 0.18 | 0.00 | 94 | 1013.0 |
| 20260507013716 | 45 | 217 | 1.0 | 3.0 | 0.00 | 0.18 | 0.00 | 93 | 1012.9 |
| 20260507012716 | 45 | 204 | 2.0 | 5.0 | 0.00 | 0.18 | 0.00 | 93 | 1012.8 |
| 20260507011717 | 46 | 218 | 3.0 | 7.0 | 0.00 | 0.18 | 0.00 | 92 | 1012.8 |
| 20260507010717 | 46 | 219 | 3.0 | 7.0 | 0.00 | 0.18 | 0.00 | 92 | 1012.8 |
| 20260507005717 | 46 | 215 | 4.0 | 8.0 | 0.00 | 0.18 | 0.00 | 92 | 1012.7 |
| 20260507004718 | 45 | 211 | 4.0 | 10.0 | 0.00 | 0.18 | 0.00 | 92 | 1012.7 |
| 20260507003715 | 46 | 219 | 5.0 | 10.0 | 0.00 | 0.18 | 0.00 | 92 | 1012.6 |
| 20260507002716 | 45 | 219 | 6.0 | 14.0 | 0.00 | 0.18 | 0.00 | 94 | 1012.6 |
| 20260507001716 | 44 | 211 | 3.0 | 6.0 | 0.00 | 0.18 | 0.00 | 96 | 1012.7 |
| 20260507000716 | 44 | 221 | 3.0 | 7.0 | 0.00 | 0.18 | 0.00 | 96 | 1012.7 |
| 20260506235717 | 44 | 217 | 3.0 | 7.0 | 0.00 | 0.18 | 0.00 | 95 | 1012.6 |
| 20260506234718 | 45 | 205 | 2.0 | 5.0 | 0.00 | 0.18 | 0.00 | 95 | 1012.6 |
| 20260506233718 | 45 | 216 | 2.0 | 4.0 | 0.00 | 0.18 | 0.00 | 94 | 1012.6 |
| 20260506232716 | 45 | 218 | 2.0 | 5.0 | 0.00 | 0.18 | 0.00 | 95 | 1012.5 |
| 20260506231716 | 45 | 208 | 2.0 | 4.0 | 0.00 | 0.18 | 0.00 | 95 | 1012.4 |
| 20260506230716 | 45 | 214 | 1.0 | 3.0 | 0.00 | 0.18 | 0.00 | 95 | 1012.4 |
| 20260506225716 | 45 | 232 | 0.0 | 1.0 | 0.00 | 0.18 | 0.00 | 95 | 1012.4 |
| 20260506224717 | 45 | 187 | 0.0 | 1.0 | 0.00 | 0.18 | 0.00 | 95 | 1012.4 |
| 20260506223717 | 44 | 0.0 | 0.0 | 0.00 | 0.18 | 0.00 | 95 | 1012.5 | |
| 20260506222717 | 44 | 0.0 | 0.0 | 0.00 | 0.18 | 0.00 | 93 | 1012.5 | |
| 20260506221715 | 45 | 0.0 | 0.0 | 0.00 | 0.18 | 0.00 | 93 | 1012.4 | |
| 20260506220716 | 45 | 0.0 | 0.0 | 0.00 | 0.18 | 0.00 | 92 | 1012.3 | |
| 20260506215716 | 46 | 224 | 0.0 | 2.0 | 0.00 | 0.18 | 0.18 | 91 | 1012.4 |
| 20260506214717 | 46 | 209 | 1.0 | 4.0 | 0.00 | 0.18 | 0.18 | 91 | 1012.4 |
| 20260506213717 | 46 | 154 | 0.0 | 2.0 | 0.00 | 0.18 | 0.18 | 91 | 1012.4 |
| 20260506212717 | 46 | 219 | 1.0 | 3.0 | 0.00 | 0.18 | 0.18 | 90 | 1012.3 |
| 20260506211718 | 47 | 208 | 1.0 | 5.0 | 0.00 | 0.18 | 0.18 | 90 | 1012.3 |
| 20260506210716 | 47 | 218 | 1.0 | 5.0 | 0.00 | 0.18 | 0.18 | 90 | 1012.2 |
| 20260506205716 | 47 | 201 | 0.0 | 3.0 | 0.00 | 0.18 | 0.18 | 90 | 1012.3 |
| 20260506204716 | 47 | 214 | 1.0 | 2.0 | 0.00 | 0.18 | 0.18 | 91 | 1012.2 |
| 20260506203716 | 46 | 156 | 2.0 | 5.0 | 0.00 | 0.18 | 0.18 | 92 | 1012.3 |
| 20260506202717 | 46 | 147 | 1.0 | 5.0 | 0.00 | 0.18 | 0.18 | 93 | 1012.3 |
| 20260506201717 | 46 | 0.0 | 0.0 | 0.00 | 0.18 | 0.18 | 91 | 1012.2 | |
| 20260506200717 | 46 | 187 | 0.0 | 1.0 | 0.00 | 0.18 | 0.18 | 91 | 1012.0 |
| 20260506195715 | 46 | 0.0 | 0.0 | 0.00 | 0.18 | 0.18 | 91 | 1011.8 | |
| 20260506194716 | 47 | 216 | 0.0 | 3.0 | 0.00 | 0.18 | 0.18 | 91 | 1011.7 |
| 20260506193716 | 47 | 204 | 1.0 | 5.0 | 0.00 | 0.18 | 0.18 | 90 | 1011.5 |
| 20260506192716 | 47 | 213 | 2.0 | 7.0 | 0.00 | 0.18 | 0.18 | 90 | 1011.4 |
| 20260506191717 | 47 | 219 | 4.0 | 8.0 | 0.00 | 0.18 | 0.18 | 90 | 1011.3 |
| 20260506190718 | 48 | 219 | 3.0 | 9.0 | 0.00 | 0.18 | 0.18 | 89 | 1011.3 |
| 20260506185718 | 48 | 220 | 3.0 | 8.0 | 0.00 | 0.18 | 0.18 | 89 | 1011.2 |
| 20260506184715 | 47 | 221 | 3.0 | 9.0 | 0.00 | 0.18 | 0.18 | 90 | 1011.2 |
| 20260506183716 | 47 | 213 | 3.0 | 7.0 | 0.00 | 0.18 | 0.18 | 90 | 1011.2 |
| 20260506182716 | 48 | 210 | 3.0 | 9.0 | 0.00 | 0.18 | 0.18 | 91 | 1011.0 |
| 20260506181717 | 48 | 207 | 1.0 | 4.0 | 0.00 | 0.18 | 0.18 | 91 | 1010.9 |
| 20260506180717 | 48 | 208 | 2.0 | 6.0 | 0.00 | 0.18 | 0.18 | 90 | 1010.8 |
| 20260506175717 | 48 | 206 | 4.0 | 11.0 | 0.00 | 0.18 | 0.18 | 89 | 1010.6 |
| 20260506174717 | 49 | 213 | 4.0 | 11.0 | 0.00 | 0.18 | 0.18 | 89 | 1010.4 |
| 20260506173715 | 49 | 217 | 3.0 | 5.0 | 0.00 | 0.18 | 0.18 | 90 | 1010.4 |
| 20260506172716 | 49 | 217 | 3.0 | 6.0 | 0.00 | 0.19 | 0.18 | 89 | 1010.3 |
| 20260506171716 | 49 | 218 | 3.0 | 10.0 | 0.00 | 0.19 | 0.18 | 88 | 1010.3 |